Back to catalog

TIANQI 28

AliveCommunicationsLEO
NORAD 59912·PAYLOAD·🇨🇳 China

Launched May 29, 2024 from Yellow Sea Launch Area

Loading…

Next Passes (next 24 hours)

TLE

FreshSource: Space-Track

Epoch: Sep 14, 2026, 11:01 UTC

1 59912U 24102D   26257.45971298 -.00000037  00000-0  62451-4 0  9995
2 59912  44.9776 224.4319 0013315 309.6300  50.3357 13.99190402117408

Track TIANQI 28 in real time with AllMySat

Download on the App Store